Iowa Falls, IA

7:28 AM CDT on September 25, 2016 (GMT -0500)
Iowa Falls Municipal

Weather History for KIFA - March, 2013

Change the Weather History Date:

Friday, March 22, 2013

  Actual Average Record
Temperature  
Mean Temperature 24 °F -  
Max Temperature 32 °F 49 °F 79 °F (1988)
Min Temperature 15 °F 27 °F 7 °F (1955)
Degree Days  
Heating Degree Days 42    
Moisture  
Dew Point 15 °F    
Average Humidity 68    
Maximum Humidity 82    
Minimum Humidity 52    
Precipitation  
Precipitation 0.00 in - - ()
Sea Level Pressure  
Sea Level Pressure 30.05 in    
Wind  
Wind Speed 4 mph (NE)    
Max Wind Speed 8 mph    
Max Gust Speed -    
Visibility 9 miles    
Events      
Averages and records for this station are not official NWS values.
T = Trace of Precipitation, MM = Missing Value Source: NWS Daily Summary

Daily Weather History Graph

Daily Weather History Graph

Search for Another Location

Airport or City:

Trip Planner

Search our weather history database for the weather conditions in past years. The results will help you decide how hot, cold, wet, or windy it might be!

Date:

Astronomy

Mar. 22, 2013 Rise Set
Actual Time 7:12 AM CDT 7:27 PM CDT
Civil Twilight 6:44 AM CDT 7:56 PM CDT
Nautical Twilight 6:11 AM CDT 8:29 PM CDT
Astronomical Twilight 5:37 AM CDT 9:02 PM CDT
Moon 2:50 PM CDT (3/22) 4:18 AM CDT (3/22)
Length of Visible Light 13h 11m
Length of Day
12h 15m
Waxing Gibbous, 77% of the Moon is Illuminated
Mar 22
Waxing Gibbous
Mar 27
Full
Apr 2
Last Quarter
Apr 10
New
Apr 18
First Quarter

Hourly Weather History & Observations

Time (CDT) Temp. Windchill Dew Point Humidity Pressure Visibility Wind Dir Wind Speed Gust Speed Precip Events Conditions
12:15 AM 19.8 °F 11.9 °F 13.5 °F 77% 30.05 in 10.0 mi NNE 5.8 mph - N/A   Clear
12:35 AM 19.4 °F 11.5 °F 13.3 °F 77% 30.06 in 10.0 mi NNE 5.8 mph - N/A   Clear
12:55 AM 19.2 °F 10.2 °F 13.1 °F 77% 30.05 in 10.0 mi NNE 6.9 mph - N/A   Clear
1:15 AM 19.0 °F 11.1 °F 12.6 °F 76% 30.05 in 7.0 mi NE 5.8 mph - N/A   Clear
1:35 AM 18.5 °F 11.7 °F 12.0 °F 76% 30.06 in 10.0 mi NE 4.6 mph - N/A   Clear
1:55 AM 18.3 °F - 12.6 °F 78% 30.06 in 10.0 mi Calm Calm - N/A   Clear
2:15 AM 18.1 °F - 12.0 °F 77% 30.07 in 10.0 mi Calm Calm - N/A   Clear
2:35 AM 17.6 °F - 12.0 °F 79% 30.06 in 10.0 mi Calm Calm - N/A   Clear
2:55 AM 17.4 °F - 11.8 °F 79% 30.06 in 10.0 mi Calm Calm - N/A   Clear
3:15 AM 17.2 °F 11.9 °F 12.0 °F 80% 30.06 in 10.0 mi NE 3.5 mph - N/A   Clear
3:35 AM 17.2 °F 11.9 °F 11.8 °F 79% 30.06 in 10.0 mi NNE 3.5 mph - N/A   Clear
3:55 AM 16.7 °F 11.2 °F 11.3 °F 79% 30.05 in 10.0 mi NE 3.5 mph - N/A   Clear
4:15 AM 16.7 °F 11.2 °F 11.7 °F 81% 30.05 in 10.0 mi NNE 3.5 mph - N/A   Clear
4:35 AM 16.7 °F 11.2 °F 11.3 °F 79% 30.05 in 10.0 mi NNE 3.5 mph - N/A   Clear
4:55 AM 16.7 °F 9.6 °F 11.3 °F 79% 30.05 in 10.0 mi NNE 4.6 mph - N/A   Clear
5:15 AM 16.7 °F - 10.9 °F 78% 30.05 in 10.0 mi Calm Calm - N/A   Clear
5:35 AM 16.5 °F - 11.1 °F 79% 30.05 in 10.0 mi Calm Calm - N/A   Clear
5:55 AM 16.3 °F - 10.9 °F 79% 30.06 in 7.0 mi Calm Calm - N/A   Clear
6:15 AM 15.8 °F - 10.0 °F 78% 30.05 in 7.0 mi Calm Calm - N/A   Clear
6:35 AM 15.8 °F - 10.4 °F 79% 30.06 in 10.0 mi Calm Calm - N/A   Clear
6:55 AM 15.8 °F - 10.6 °F 80% 30.05 in 7.0 mi Calm Calm - N/A   Clear
7:15 AM 15.4 °F 9.8 °F 10.8 °F 82% 30.05 in 7.0 mi NNE 3.5 mph - N/A   Clear
7:35 AM 15.4 °F - 10.4 °F 80% 30.06 in 10.0 mi Calm Calm - N/A   Clear
7:55 AM 16.0 °F 8.8 °F 9.7 °F 76% 30.05 in 10.0 mi NE 4.6 mph - N/A   Clear
8:15 AM 16.9 °F 11.5 °F 9.9 °F 74% 30.06 in 10.0 mi NE 3.5 mph - N/A   Clear
8:35 AM 18.3 °F 13.1 °F 10.9 °F 73% 30.05 in 10.0 mi NE 3.5 mph - N/A   Clear
8:55 AM 19.8 °F 14.7 °F 12.0 °F 72% 30.05 in 10.0 mi ENE 3.5 mph - N/A   Clear
9:15 AM 21.7 °F 13.2 °F 11.5 °F 65% 30.05 in 7.0 mi ENE 6.9 mph - N/A   Clear
9:35 AM 22.6 °F 16.5 °F 11.3 °F 62% 30.06 in 10.0 mi ENE 4.6 mph - N/A   Clear
9:55 AM 23.2 °F 17.2 °F 11.3 °F 60% 30.05 in 7.0 mi ENE 4.6 mph - N/A   Clear
10:15 AM 23.7 °F 17.8 °F 12.0 °F 61% 30.05 in 7.0 mi NE 4.6 mph - N/A   Clear
10:35 AM 24.4 °F 18.6 °F 11.8 °F 59% 30.05 in 10.0 mi East 4.6 mph - N/A   Clear
10:55 AM 25.3 °F 18.5 °F 12.6 °F 58% 30.04 in 10.0 mi East 5.8 mph - N/A   Clear
11:15 AM 25.9 °F 20.3 °F 12.4 °F 57% 30.04 in 10.0 mi ENE 4.6 mph - N/A   Clear
11:35 AM 26.4 °F 19.8 °F 12.9 °F 57% 30.04 in 7.0 mi NE 5.8 mph - N/A   Clear
11:55 AM 27.1 °F 20.7 °F 14.4 °F 59% 30.04 in 10.0 mi ENE 5.8 mph - N/A   Clear
12:15 PM 27.1 °F 19.7 °F 14.2 °F 58% 30.04 in 10.0 mi ENE 6.9 mph - N/A   Clear
12:35 PM 28.4 °F - 14.4 °F 56% 30.05 in 10.0 mi Calm Calm - N/A   Clear
12:55 PM 28.6 °F - 14.4 °F 55% 30.04 in 7.0 mi Calm Calm - N/A   Clear
1:15 PM 29.8 °F - 14.5 °F 53% 30.04 in 5.0 mi Calm Calm - N/A   Haze
1:35 PM 30.0 °F 25.2 °F 16.2 °F 56% 30.04 in 5.0 mi ESE 4.6 mph - N/A   Haze
1:55 PM 30.6 °F - 16.3 °F 56% 30.04 in 7.0 mi Calm Calm - N/A   Clear
2:15 PM 30.7 °F 26.0 °F 17.2 °F 57% 30.03 in 5.0 mi WSW 4.6 mph - N/A   Haze
2:35 PM 31.8 °F - 18.9 °F 59% 30.03 in 5.0 mi Calm Calm - N/A   Haze
2:55 PM 32.0 °F - 17.2 °F 55% 30.03 in 7.0 mi Calm Calm - N/A   Clear
3:15 PM 32.0 °F 28.7 °F 16.3 °F 52% 30.02 in 7.0 mi WSW 3.5 mph - N/A   Clear
3:35 PM 31.6 °F - 15.6 °F 52% 30.02 in 10.0 mi Calm Calm - N/A   Clear
3:55 PM 31.6 °F - 16.2 °F 53% 30.02 in 10.0 mi Calm Calm - N/A   Clear
4:15 PM 31.8 °F - 16.2 °F 52% 30.02 in 10.0 mi Calm Calm - N/A   Clear
4:35 PM 31.6 °F - 16.2 °F 53% 30.02 in 10.0 mi Calm Calm - N/A   Scattered Clouds
4:55 PM 31.6 °F - 17.2 °F 55% 30.01 in 10.0 mi Calm Calm - N/A   Scattered Clouds
5:15 PM 31.5 °F 25.8 °F 18.7 °F 59% 30.02 in 10.0 mi NE 5.8 mph - N/A   Scattered Clouds
5:35 PM 31.3 °F 25.6 °F 18.9 °F 60% 30.02 in 10.0 mi NNE 5.8 mph - N/A   Scattered Clouds
5:55 PM 30.9 °F 23.5 °F 19.0 °F 61% 30.02 in 10.0 mi NNE 8.1 mph - N/A   Scattered Clouds
6:15 PM 30.2 °F 24.3 °F 18.5 °F 62% 30.02 in 10.0 mi NNE 5.8 mph - N/A   Clear
6:35 PM 30.2 °F 25.4 °F 19.0 °F 63% 30.03 in 10.0 mi NNE 4.6 mph - N/A   Clear
6:55 PM 29.8 °F 23.9 °F 18.0 °F 61% 30.04 in 10.0 mi NNE 5.8 mph - N/A   Clear
7:15 PM 29.8 °F 24.9 °F 19.0 °F 64% 30.04 in 10.0 mi NNE 4.6 mph - N/A   Clear
7:35 PM 29.8 °F 23.9 °F 20.3 °F 68% 30.04 in 10.0 mi NNE 5.8 mph - N/A   Clear
7:55 PM 29.3 °F 23.2 °F 20.3 °F 69% 30.05 in 10.0 mi NNE 5.8 mph - N/A   Mostly Cloudy
8:15 PM 29.1 °F 23.0 °F 19.9 °F 69% 30.05 in 10.0 mi NNE 5.8 mph - N/A   Overcast
8:35 PM 28.9 °F 21.9 °F 19.8 °F 69% 30.05 in 10.0 mi NNE 6.9 mph - N/A   Overcast
8:55 PM 28.4 °F 21.2 °F 19.4 °F 69% 30.05 in 10.0 mi NNE 6.9 mph - N/A   Overcast
9:15 PM 28.2 °F 22.0 °F 19.4 °F 70% 30.05 in 10.0 mi NNE 5.8 mph - N/A   Mostly Cloudy
9:35 PM 27.9 °F 22.6 °F 19.4 °F 71% 30.06 in 10.0 mi North 4.6 mph - N/A   Scattered Clouds
9:55 PM 28.0 °F 24.2 °F 19.6 °F 71% 30.06 in 10.0 mi North 3.5 mph - N/A   Mostly Cloudy
10:15 PM 28.0 °F 21.7 °F 18.5 °F 67% 30.07 in 10.0 mi North 5.8 mph - N/A   Overcast
10:35 PM 28.0 °F 22.8 °F 19.2 °F 70% 30.07 in 10.0 mi North 4.6 mph - N/A   Overcast
10:55 PM 28.0 °F 22.8 °F 19.4 °F 70% 30.08 in 10.0 mi NNE 4.6 mph - N/A   Overcast
11:15 PM 27.5 °F 22.2 °F 20.1 °F 74% 30.07 in 10.0 mi North 4.6 mph - N/A   Overcast
11:35 PM 27.5 °F 22.2 °F 20.3 °F 74% 30.07 in 10.0 mi NNE 4.6 mph - N/A   Mostly Cloudy
11:55 PM 27.1 °F 21.8 °F 20.8 °F 77% 30.07 in 10.0 mi NE 4.6 mph - N/A   Scattered Clouds